Bei Facebook empfehlenBei Twitter postenGoogle plusPinterest

Das Wetter im Erzgebirge am 08.02.2017

Wetter und Klima am 08.02.2017 Holzhau im Erzgebirge (630m ü.NN)
Letzte gemessene Temperatur und Uhrzeit der Messung23:45:00 Uhr-6.50 °C
Temperatur (Maximum / Höchstwert) und Uhrzeit der Messung00:00:00 Uhr-3.40 °C
Temperatur (Minimum / Tiefstwert) und Uhrzeit der Messung07:00:00-6.90 °C
Errechneter Absolutwert der Temperaturschwankungen zwischen Tmin und Tmax des Tages3.50 K
Errechnete Tagesmitteltemperatur-5.21225 °C
Gesamt - Niederschlag des Tages (in flüssiger Form)0.00 Liter / m²
Luftdruck (Maximum / Höchstwert) und Zeitpunkt der Messung12:00:00 Uhr1018.80 hPa
Luftdruck (Minimum / Tiefstwert) und Zeitpunkt der Messung01:15:00 Uhr1015.70 hPa
Errechneter Absolutwert der Luftdruckschwankungen des Tages3.10 hPa
Höchste gemessene Windgeschwindigkeit und Uhrzeit der Messung05:30:00 Uhr6.84 km/h
Errechnete Windhäufigkeit in Relation zu den Messwerten des Tages24.48980 %
Niedrigste Windkühle (Windchill) und Zeitpunkt der Messung05:30:00 Uhr-9.40 °C
Taupunkt (Maximum / Höchstwert) und Uhrzeit der Messung00:00:00 Uhr-5.10 °C
Taupunkt (Minimum / Tiefstwert) und Uhrzeit der Messung07:00:00-8.60 °C
Anzahl der automatisch eingelesenen Messwerte 49

Detaillierte Wetter- und Klima- Messwerte für den 08.02.2017 in Holzhau im Erzgebirge (630m ü.NN)
ZeitTemperaturLuftdruckRel. LuftfeuchteWindWindrichtungWindchillTaupunktNiederschlag l/m²
23:45:00-6.50 °C1022.20 hPa87.00 %-8.50 °C 
23:30:00-6.40 °C1022.00 hPa87.00 %-8.40 °C 
23:15:00-6.40 °C1022.10 hPa87.00 %-8.40 °C 
23:00:00-6.40 °C1022.00 hPa86.00 %-8.60 °C 
22:45:00-6.40 °C1021.90 hPa86.00 %-8.60 °C 
22:30:00-6.20 °C1021.60 hPa86.00 %-8.40 °C 
22:15:00-6.20 °C1021.80 hPa86.00 %-8.40 °C 
22:00:00-6.20 °C1021.80 hPa86.00 %-8.40 °C 
21:45:00-6.20 °C1021.50 hPa86.00 %-8.40 °C 
21:30:00-6.20 °C1021.70 hPa86.00 %-8.40 °C 
21:15:00-6.20 °C1021.50 hPa86.00 %-8.40 °C 
21:00:00-6.20 °C1021.40 hPa86.00 %-8.40 °C 
20:45:00-6.20 °C1021.40 hPa86.00 %-8.40 °C 
20:30:00-6.20 °C1021.40 hPa85.00 %-8.60 °C 
20:15:00-6.20 °C1021.40 hPa85.00 %-8.60 °C 
20:00:00-6.20 °C1021.30 hPa85.00 %-8.60 °C 
19:45:00-6.20 °C1021.30 hPa85.00 %-8.60 °C 
19:30:00-6.10 °C1021.20 hPa85.00 %-8.50 °C 
19:15:00-6.10 °C1021.00 hPa85.00 %-8.50 °C 
19:00:00-6.10 °C1020.90 hPa85.00 %-8.50 °C 
18:45:00-5.90 °C1020.80 hPa84.00 %-8.40 °C 
18:30:00-5.90 °C1020.60 hPa84.00 %-8.40 °C 
18:15:00-5.80 °C1020.50 hPa84.00 %-8.30 °C 
18:00:00-5.70 °C1020.40 hPa84.00 %-8.20 °C 
17:45:00-5.60 °C1020.30 hPa84.00 %1.80 km/hSSO-5.60 °C-8.10 °C 
17:30:00-5.50 °C1020.30 hPa83.00 %-8.20 °C 
17:15:00-5.10 °C1020.20 hPa82.00 %-8.00 °C 
17:00:00-4.90 °C1020.10 hPa82.00 %-7.80 °C 
16:45:00-4.60 °C1020.00 hPa81.00 %-7.70 °C 
16:30:00-4.10 °C1020.10 hPa79.00 %3.96 km/hSSO-4.10 °C-7.60 °C 
16:15:00-3.60 °C1019.80 hPa78.00 %6.48 km/hSSO-6.40 °C-7.30 °C 
16:00:00-2.90 °C1019.70 hPa77.00 %-6.80 °C 
15:45:00-2.20 °C1019.50 hPa76.00 %-6.30 °C 
15:30:00-1.40 °C1019.70 hPa75.00 %-5.70 °C 
15:15:00-1.20 °C1019.60 hPa76.00 %-5.30 °C 
15:00:00-1.40 °C1019.40 hPa75.00 %-5.70 °C 
14:45:00-1.30 °C1019.50 hPa74.00 %-5.80 °C 
14:30:00-1.10 °C1019.50 hPa73.00 %-5.80 °C 
14:15:00-0.40 °C1019.40 hPa71.00 %-5.50 °C 
14:00:00-0.40 °C1019.20 hPa73.00 %-5.10 °C 
13:45:00-0.70 °C1019.30 hPa72.00 %3.24 km/hSSO-0.70 °C-5.60 °C 
13:30:00-0.50 °C1019.20 hPa71.00 %0.72 km/hSSO-0.50 °C-5.60 °C 
13:15:000.00 °C1019.10 hPa74.00 %-4.50 °C 
13:00:00-0.20 °C1019.00 hPa76.00 %-4.30 °C 
12:45:00-1.20 °C1018.90 hPa77.00 %2.16 km/hSSO-1.20 °C-5.10 °C 
12:30:00-1.80 °C1018.80 hPa79.00 %-5.30 °C 
12:15:00-2.80 °C1018.80 hPa80.00 %-6.10 °C 
12:00:00-3.50 °C1018.80 hPa81.00 %5.04 km/hSSO-5.60 °C-6.60 °C 
11:45:00-3.90 °C1018.70 hPa83.00 %-6.70 °C 
11:30:00-4.10 °C1018.80 hPa83.00 %-6.80 °C 
11:15:00-4.40 °C1018.80 hPa85.00 %-6.80 °C 
11:00:00-4.70 °C1018.60 hPa85.00 %-7.10 °C 
10:45:00-4.90 °C1018.50 hPa86.00 %-7.10 °C 
10:30:00-5.40 °C1018.50 hPa86.00 %-7.60 °C 
10:15:00-5.70 °C1018.60 hPa86.00 %4.32 km/hSSO-5.70 °C-7.90 °C 
10:00:00-5.60 °C1018.30 hPa87.00 %5.04 km/hSSO-8.00 °C-7.60 °C 
09:45:00-5.80 °C1018.40 hPa88.00 %-7.70 °C 
09:30:00-6.20 °C1018.40 hPa88.00 %-8.10 °C 
09:15:00-6.20 °C1018.40 hPa89.00 %-7.90 °C 
09:00:00-6.20 °C1018.00 hPa89.00 %-7.90 °C 
08:45:00-6.60 °C1018.00 hPa89.00 %-8.30 °C 
08:30:00-6.70 °C1017.90 hPa89.00 %0.72 km/hSSO-6.70 °C-8.40 °C 
08:15:00-6.80 °C1017.80 hPa89.00 %-8.50 °C 
08:00:00-6.80 °C1017.80 hPa89.00 %3.96 km/hSSO-6.80 °C-8.50 °C 
07:45:00-6.70 °C1017.60 hPa89.00 %-8.40 °C 
07:30:00-6.80 °C1017.40 hPa89.00 %-8.50 °C 
07:15:00-6.80 °C1017.10 hPa89.00 %-8.50 °C 
07:00:00-6.90 °C1017.10 hPa89.00 %-8.60 °C 
06:45:00-6.90 °C1017.10 hPa89.00 %-8.60 °C 
06:30:00-6.70 °C1017.10 hPa89.00 %-8.40 °C 
06:15:00-6.60 °C1017.00 hPa89.00 %1.44 km/hSSO-6.60 °C-8.30 °C 
06:00:00-6.50 °C1016.80 hPa88.00 %-8.40 °C 
05:45:00-6.20 °C1016.80 hPa88.00 %5.40 km/hSSO-8.80 °C-8.10 °C 
05:30:00-6.10 °C1016.80 hPa88.00 %6.84 km/hSSO-9.40 °C-8.00 °C 
05:15:00-5.90 °C1016.70 hPa88.00 %3.24 km/hSSO-5.90 °C-7.80 °C 
05:00:00-5.70 °C1016.70 hPa88.00 %1.08 km/hSSO-5.70 °C-7.60 °C 
04:45:00-5.50 °C1016.50 hPa87.00 %-7.50 °C 
04:30:00-5.30 °C1016.40 hPa86.00 %-7.50 °C 
04:15:00-5.10 °C1016.30 hPa86.00 %-7.30 °C 
04:00:00-4.90 °C1016.40 hPa86.00 %-7.10 °C 
03:45:00-4.70 °C1016.10 hPa86.00 %-6.90 °C 
03:30:00-4.60 °C1016.30 hPa86.00 %-6.80 °C 
03:15:00-4.40 °C1016.30 hPa86.00 %-6.60 °C 
03:00:00-4.40 °C1016.10 hPa85.00 %-6.80 °C 
02:45:00-4.20 °C1016.20 hPa86.00 %-6.40 °C 
02:30:00-4.20 °C1016.10 hPa86.00 %-6.40 °C 
02:15:00-4.10 °C1016.10 hPa86.00 %-6.30 °C 
02:00:00-3.90 °C1016.00 hPa86.00 %-6.10 °C 
01:45:00-3.90 °C1015.80 hPa87.00 %-6.00 °C 
01:30:00-3.80 °C1015.90 hPa87.00 %-5.90 °C 
01:15:00-3.60 °C1015.70 hPa87.00 %-5.70 °C 
01:00:00-3.60 °C1015.80 hPa88.00 %-5.50 °C 
00:45:00-3.50 °C1015.90 hPa89.00 %-5.20 °C 
00:30:00-3.50 °C1015.80 hPa89.00 %-5.20 °C 
00:15:00-3.50 °C1016.00 hPa89.00 %1.08 km/hSSO-3.50 °C-5.20 °C 
00:00:00-3.40 °C1015.80 hPa89.00 %0.36 km/hSSO-3.40 °C-5.10 °C 

Permanenter Link zu dieser Seite: Wetter im Erzgebirge am 08.02.2017
Performance-Info: Die Erstellung der Seite / Statistik(en) / Tabelle(n) erforderte 5 Datenbankserver-Abfrage(n) und dauerte 96 Millisekunden. (Dieser Messwert ist von der Gesamt-Auslastung des Servers abhängig.)
Erzgebirge - Wetter | Erzgebirge - Wetter (Mobilgeräte) | Komplette Klimadatenbank